Location: *
(50.3440°N, 18.6237°E)
Time: 18:12:52
(UTC+00:00)

YAOGAN 1 - Pass Details

Date: 30 November 2020
Orbit: 618 x 620 km, 97.9° (Epoch: 17 January)

Event Time Altitude Azimuth Distance (km) Brightness Sun altitude
Exits shadow 16:51:53 44° 95° (E) 868 2.8 -19.3°
Maximum altitude 16:52:28 47° 70° (ENE) 829 2.7 -19.4°
Drops below altitude 10° 16:56:38 10° 356° (N) 2,002 5.1 -20.1°
Sets 16:58:53 0° 351° (N) 2,913 6.0 -20.4°
